• In Hungary
  • List of Countries
  • For 7 days
  • Water Temperature
  • Satellite Maps
  • Weather Map
  • News
  • Weather Widgets
  • user-avatar
    Login

    Hourly Weather Shunyakovo

    Today, 26 September, Wednesday

    Time Temperature Precipitation Wind Pressure Humidity
    00:00 +14°C° 0.1 mm 4 mps 750 mmHg 71%
    01:00 +13°C° 0.1 mm 4 mps 750 mmHg 71%
    02:00 +13°C° 0 mm 4 mps 750 mmHg 69%
    03:00 +13°C° 0 mm 5 mps 750 mmHg 67%
    04:00 +13°C° 0 mm 6 mps 750 mmHg 64%
    05:00 +13°C° 0.1 mm 6 mps 750 mmHg 66%
    06:00 +13°C° 0.1 mm 6 mps 750 mmHg 68%
    07:00 +13°C° 0.1 mm 6 mps 750 mmHg 69%
    08:00 +13°C° 0.1 mm 6 mps 751 mmHg 69%
    09:00 +13°C° 0.1 mm 6 mps 751 mmHg 69%
    10:00 +13°C° 0.1 mm 6 mps 751 mmHg 68%
    11:00 +13°C° 0.5 mm 5 mps 752 mmHg 73%
    12:00 +12°C° 0.5 mm 5 mps 752 mmHg 77%
    13:00 +12°C° 0.5 mm 5 mps 752 mmHg 82%
    14:00 +12°C° 0.5 mm 5 mps 752 mmHg 83%
    15:00 +12°C° 0.5 mm 4 mps 753 mmHg 85%
    16:00 +11°C° 0.5 mm 4 mps 753 mmHg 86%
    17:00 +11°C° 0.6 mm 3 mps 753 mmHg 88%
    18:00 +11°C° 0.6 mm 3 mps 753 mmHg 89%
    19:00 +10°C° 0.6 mm 3 mps 753 mmHg 91%
    20:00 +10°C° 0.3 mm 2 mps 753 mmHg 91%
    21:00 +10°C° 0.3 mm 2 mps 753 mmHg 91%
    22:00 +9°C° 0.3 mm 2 mps 753 mmHg 91%
    23:00 +9°C° 0.2 mm 2 mps 753 mmHg 92%

    Tomorrow, 27 September, Thursday

    Time Temperature Precipitation Wind Pressure Humidity
    00:00 +9°C° 0.2 mm 2 mps 753 mmHg 92%
    01:00 +10°C° 0.2 mm 1 mps 752 mmHg 92%
    02:00 +9°C° 0.3 mm 2 mps 752 mmHg 92%
    03:00 +8°C° 0.3 mm 2 mps 752 mmHg 92%
    04:00 +8°C° 0.3 mm 2 mps 752 mmHg 91%
    05:00 +8°C° 0.1 mm 2 mps 752 mmHg 90%
    06:00 +8°C° 0.1 mm 3 mps 751 mmHg 88%
    07:00 +8°C° 0.1 mm 3 mps 751 mmHg 86%
    08:00 +7°C° 0 mm 4 mps 751 mmHg 81%
    09:00 +8°C° 0 mm 4 mps 751 mmHg 76%
    10:00 +8°C° 0 mm 5 mps 751 mmHg 71%
    11:00 +8°C° 0 mm 6 mps 750 mmHg 67%
    12:00 +9°C° 0 mm 6 mps 750 mmHg 62%
    13:00 +10°C° 0 mm 6 mps 749 mmHg 58%
    14:00 +10°C° 0 mm 7 mps 749 mmHg 58%
    15:00 +10°C° 0 mm 7 mps 748 mmHg 58%
    16:00 +10°C° 0 mm 7 mps 747 mmHg 58%
    17:00 +9°C° 0 mm 6 mps 747 mmHg 60%
    18:00 +8°C° 0 mm 6 mps 747 mmHg 62%
    19:00 +7°C° 0 mm 5 mps 746 mmHg 64%
    20:00 +7°C° 0.2 mm 6 mps 746 mmHg 66%
    21:00 +7°C° 0.2 mm 6 mps 745 mmHg 69%
    22:00 +6°C° 0.2 mm 7 mps 744 mmHg 72%
    23:00 +5°C° 0.5 mm 7 mps 743 mmHg 75%

    Day after tomorrow, 28 September, Friday

    Time Temperature Precipitation Wind Pressure Humidity
    00:00 +5°C° 0.5 mm 7 mps 743 mmHg 78%
    01:00 +4°C° 0.5 mm 7 mps 742 mmHg 81%
    02:00 +4°C° 0.6 mm 7 mps 742 mmHg 83%
    03:00 +4°C° 0.6 mm 6 mps 741 mmHg 85%
    04:00 +4°C° 0.6 mm 6 mps 741 mmHg 87%
    05:00 +4°C° 0.1 mm 6 mps 742 mmHg 86%
    06:00 +4°C° 0.1 mm 6 mps 742 mmHg 85%
    07:00 +5°C° 0.1 mm 6 mps 743 mmHg 85%
    08:00 +5°C° 0 mm 7 mps 743 mmHg 82%
    09:00 +5°C° 0 mm 7 mps 744 mmHg 79%
    10:00 +6°C° 0 mm 7 mps 744 mmHg 76%
    11:00 +6°C° 0.1 mm 7 mps 745 mmHg 73%
    12:00 +8°C° 0.1 mm 7 mps 745 mmHg 71%
    13:00 +8°C° 0.1 mm 7 mps 745 mmHg 69%
    14:00 +8°C° 0.1 mm 7 mps 745 mmHg 67%
    15:00 +9°C° 0.1 mm 7 mps 745 mmHg 66%
    16:00 +9°C° 0.1 mm 6 mps 745 mmHg 65%
    17:00 +8°C° 0.4 mm 6 mps 745 mmHg 71%
    18:00 +8°C° 0.4 mm 5 mps 744 mmHg 78%
    19:00 +7°C° 0.4 mm 5 mps 744 mmHg 84%
    20:00 +7°C° 1.1 mm 6 mps 743 mmHg 83%
    21:00 +8°C° 1.1 mm 7 mps 742 mmHg 82%
    22:00 +7°C° 1.1 mm 9 mps 741 mmHg 81%
    23:00 +8°C° 0.2 mm 9 mps 741 mmHg 80%

    29 September, Saturday

    Time Temperature Precipitation Wind Pressure Humidity
    00:00 +9°C° 0.2 mm 10 mps 740 mmHg 79%
    01:00 +9°C° 0.2 mm 10 mps 740 mmHg 78%
    02:00 +9°C° 0.4 mm 10 mps 740 mmHg 80%
    03:00 +10°C° 0.4 mm 9 mps 741 mmHg 82%
    04:00 +10°C° 0.4 mm 9 mps 741 mmHg 84%
    05:00 +9°C° 0.2 mm 8 mps 742 mmHg 83%
    06:00 +6°C° 0.2 mm 7 mps 743 mmHg 83%
    07:00 +5°C° 0.2 mm 6 mps 744 mmHg 82%
    08:00 +5°C° 0 mm 6 mps 745 mmHg 78%
    09:00 +6°C° 0 mm 7 mps 746 mmHg 73%
    10:00 +6°C° 0 mm 7 mps 747 mmHg 69%
    11:00 +8°C° 0 mm 7 mps 748 mmHg 66%
    12:00 +8°C° 0 mm 7 mps 748 mmHg 62%
    13:00 +9°C° 0 mm 8 mps 749 mmHg 59%
    14:00 +9°C° 0 mm 7 mps 750 mmHg 58%
    15:00 +8°C° 0 mm 7 mps 750 mmHg 57%
    16:00 +8°C° 0 mm 6 mps 751 mmHg 56%
    17:00 +7°C° 0 mm 5 mps 751 mmHg 59%
    18:00 +6°C° 0 mm 4 mps 752 mmHg 63%
    19:00 +5°C° 0 mm 3 mps 752 mmHg 66%
    20:00 +4°C° 0 mm 3 mps 753 mmHg 68%
    21:00 +4°C° 0 mm 3 mps 753 mmHg 70%
    22:00 +4°C° 0 mm 3 mps 753 mmHg 72%
    23:00 +3°C° 0 mm 3 mps 754 mmHg 74%

    30 September, Sunday

    Time Temperature Precipitation Wind Pressure Humidity
    00:00 +3°C° 0 mm 3 mps 754 mmHg 76%
    01:00 +2°C° 0 mm 3 mps 754 mmHg 78%
    02:00 +2°C° 0 mm 3 mps 754 mmHg 78%
    03:00 +2°C° 0 mm 3 mps 755 mmHg 78%
    04:00 +3°C° 0 mm 2 mps 755 mmHg 78%
    05:00 +3°C° 0 mm 2 mps 755 mmHg 79%
    06:00 +3°C° 0 mm 2 mps 755 mmHg 79%
    07:00 +3°C° 0 mm 2 mps 755 mmHg 79%
    08:00 +3°C° 0 mm 3 mps 756 mmHg 75%
    09:00 +5°C° 0 mm 3 mps 756 mmHg 71%
    10:00 +7°C° 0 mm 3 mps 756 mmHg 66%
    11:00 +7°C° 0 mm 3 mps 756 mmHg 63%
    12:00 +8°C° 0 mm 3 mps 756 mmHg 60%
    13:00 +9°C° 0 mm 3 mps 756 mmHg 57%
    14:00 +9°C° 0 mm 3 mps 756 mmHg 57%
    15:00 +9°C° 0 mm 3 mps 756 mmHg 58%
    16:00 +8°C° 0 mm 3 mps 756 mmHg 58%
    17:00 +8°C° 0 mm 3 mps 756 mmHg 60%
    18:00 +7°C° 0 mm 2 mps 756 mmHg 62%
    19:00 +6°C° 0 mm 2 mps 756 mmHg 65%
    20:00 +6°C° 0 mm 2 mps 756 mmHg 65%
    21:00 +6°C° 0 mm 2 mps 756 mmHg 65%
    22:00 +5°C° 0 mm 2 mps 756 mmHg 66%
    23:00 +5°C° 0 mm 2 mps 756 mmHg 67%

    1 October, Monday

    Time Temperature Precipitation Wind Pressure Humidity
    00:00 +4°C° 0 mm 2 mps 756 mmHg 68%
    01:00 +4°C° 0 mm 2 mps 756 mmHg 69%
    02:00 +3°C° 0 mm 2 mps 756 mmHg 72%
    03:00 +3°C° 0 mm 2 mps 756 mmHg 74%
    04:00 +3°C° 0 mm 1 mps 756 mmHg 76%
    05:00 +3°C° 0 mm 1 mps 756 mmHg 77%
    06:00 +3°C° 0 mm 1 mps 756 mmHg 78%
    07:00 +3°C° 0 mm 1 mps 756 mmHg 80%
    08:00 +3°C° 0 mm 2 mps 756 mmHg 74%
    09:00 +5°C° 0 mm 2 mps 756 mmHg 69%
    10:00 +6°C° 0 mm 2 mps 757 mmHg 64%
    11:00 +7°C° 0 mm 3 mps 756 mmHg 60%
    12:00 +8°C° 0 mm 3 mps 756 mmHg 57%
    13:00 +7°C° 0 mm 4 mps 756 mmHg 54%
    14:00 +7°C° 0 mm 4 mps 756 mmHg 54%
    15:00 +7°C° 0 mm 4 mps 756 mmHg 54%
    16:00 +7°C° 0 mm 4 mps 756 mmHg 55%
    17:00 +7°C° 0 mm 3 mps 756 mmHg 59%
    18:00 +5°C° 0 mm 3 mps 756 mmHg 64%
    19:00 +4°C° 0 mm 2 mps 756 mmHg 68%
    20:00 +3°C° 0 mm 3 mps 756 mmHg 69%
    21:00 +3°C° 0 mm 3 mps 756 mmHg 70%
    22:00 +3°C° 0 mm 3 mps 756 mmHg 71%
    23:00 +3°C° 0 mm 3 mps 756 mmHg 72%
    Show more